Tracking 35237 objects as of 6-Sep-2026
HD Live streaming from Space Station
objects crossing your sky now

DELTA 1 DEB

Track DELTA 1 DEB now!
10-day predictions


NORAD ID: 42091
Int'l Code: 1968-114T
Launch date: December 15, 1968
Source: United States (US)
Launch site: AIR FORCE WESTERN TEST RANGE (AFWTR)

Note: This is SATELLITE DEBRIS
Your satellite tracking list
Your tracking list is empty




NASA's NSSDC Master Catalog

Two Line Element Set (TLE):
1 42091U 68114T   26245.80670351  .00000045  00000-0  59828-3 0  9999
2 42091 101.4927 218.9650 0036040 150.3773 326.3269 12.47226132581793
Source of the keplerian elements: AFSPC